When you browse on this site, cookies collect data to enhance your experience and personalize the content and advertising you see.
Visit our Privacy Policy to learn more. By continuing to use the site, you agree to this use of cookies and data.
  • En España
  • Lista de países
  • Para 7 días
  • Temperatura del agua
  • El tiempo en el mapa
  • Informadores
  • user-avatar
    Iniciar sesión

    Tiempo cada hora Usti-nad-Labem

    Hoy, 4 Junio, Jueves

    Tiempo Temperatura Precipitaciones Viento Presión Humedad
    00:00 +13°C° 0 mm 1 mps 730 mmHg 86%
    01:00 +12°C° 0 mm 1 mps 730 mmHg 87%
    02:00 +12°C° 0 mm 1 mps 730 mmHg 88%
    03:00 +11°C° 0 mm 1 mps 729 mmHg 88%
    04:00 +11°C° 0 mm 1 mps 729 mmHg 89%
    05:00 +12°C° 0 mm 2 mps 729 mmHg 86%
    06:00 +13°C° 0 mm 2 mps 728 mmHg 84%
    07:00 +14°C° 0 mm 2 mps 728 mmHg 82%
    08:00 +16°C° 0 mm 2 mps 728 mmHg 78%
    09:00 +17°C° 0 mm 3 mps 728 mmHg 74%
    10:00 +19°C° 0 mm 3 mps 728 mmHg 70%
    11:00 +18°C° 0.4 mm 3 mps 727 mmHg 75%
    12:00 +18°C° 0.4 mm 3 mps 727 mmHg 81%
    13:00 +18°C° 0.4 mm 3 mps 727 mmHg 86%
    14:00 +18°C° 0.1 mm 3 mps 726 mmHg 83%
    15:00 +19°C° 0.1 mm 3 mps 725 mmHg 79%
    16:00 +20°C° 0.1 mm 4 mps 725 mmHg 76%
    17:00 +19°C° 0.8 mm 3 mps 725 mmHg 80%
    18:00 +19°C° 0.8 mm 3 mps 724 mmHg 85%
    19:00 +18°C° 0.8 mm 2 mps 724 mmHg 89%
    20:00 +17°C° 0.6 mm 2 mps 724 mmHg 90%
    21:00 +17°C° 0.6 mm 3 mps 724 mmHg 91%
    22:00 +16°C° 0.6 mm 3 mps 724 mmHg 92%
    23:00 +14°C° 1.2 mm 3 mps 724 mmHg 94%

    Mañana, 5 Junio, Viernes

    Tiempo Temperatura Precipitaciones Viento Presión Humedad
    00:00 +14°C° 1.2 mm 3 mps 725 mmHg 95%
    01:00 +14°C° 1.2 mm 2 mps 725 mmHg 96%
    02:00 +14°C° 0.3 mm 2 mps 725 mmHg 96%
    03:00 +13°C° 0.3 mm 2 mps 725 mmHg 95%
    04:00 +13°C° 0.3 mm 2 mps 726 mmHg 94%
    05:00 +11°C° 0 mm 3 mps 726 mmHg 93%
    06:00 +11°C° 0 mm 3 mps 727 mmHg 92%
    07:00 +11°C° 0 mm 3 mps 727 mmHg 91%
    08:00 +11°C° 0 mm 3 mps 727 mmHg 87%
    09:00 +13°C° 0 mm 2 mps 728 mmHg 83%
    10:00 +13°C° 0 mm 2 mps 728 mmHg 79%
    11:00 +14°C° 0.1 mm 2 mps 728 mmHg 75%
    12:00 +15°C° 0.1 mm 2 mps 728 mmHg 70%
    13:00 +16°C° 0.1 mm 2 mps 728 mmHg 66%
    14:00 +16°C° 0.2 mm 3 mps 728 mmHg 69%
    15:00 +16°C° 0.2 mm 3 mps 728 mmHg 71%
    16:00 +16°C° 0.2 mm 3 mps 728 mmHg 74%
    17:00 +16°C° 0.5 mm 3 mps 728 mmHg 77%
    18:00 +14°C° 0.5 mm 3 mps 727 mmHg 80%
    19:00 +14°C° 0.5 mm 3 mps 727 mmHg 83%
    20:00 +13°C° 0.3 mm 3 mps 728 mmHg 86%
    21:00 +12°C° 0.3 mm 4 mps 728 mmHg 88%
    22:00 +11°C° 0.3 mm 4 mps 729 mmHg 90%
    23:00 +11°C° 0.1 mm 4 mps 729 mmHg 91%

    Pasado mañana, 6 Junio, Sábado

    Tiempo Temperatura Precipitaciones Viento Presión Humedad
    00:00 +10°C° 0.1 mm 3 mps 729 mmHg 92%
    01:00 +9°C° 0.1 mm 3 mps 729 mmHg 92%
    02:00 +10°C° 0.2 mm 3 mps 729 mmHg 93%
    03:00 +10°C° 0.2 mm 2 mps 729 mmHg 93%
    04:00 +10°C° 0.2 mm 2 mps 729 mmHg 93%
    05:00 +10°C° 0.1 mm 3 mps 730 mmHg 90%
    06:00 +11°C° 0.1 mm 3 mps 730 mmHg 87%
    07:00 +12°C° 0.1 mm 3 mps 731 mmHg 84%
    08:00 +13°C° 0.1 mm 4 mps 731 mmHg 76%
    09:00 +14°C° 0.1 mm 5 mps 732 mmHg 68%
    10:00 +15°C° 0.1 mm 5 mps 733 mmHg 60%
    11:00 +16°C° 0 mm 6 mps 733 mmHg 58%
    12:00 +16°C° 0 mm 7 mps 733 mmHg 56%
    13:00 +17°C° 0 mm 7 mps 733 mmHg 54%
    14:00 +17°C° 0 mm 7 mps 733 mmHg 56%
    15:00 +17°C° 0 mm 6 mps 733 mmHg 57%
    16:00 +17°C° 0 mm 6 mps 733 mmHg 59%
    17:00 +16°C° 0 mm 5 mps 733 mmHg 63%
    18:00 +15°C° 0 mm 5 mps 733 mmHg 68%
    19:00 +14°C° 0 mm 4 mps 733 mmHg 73%
    20:00 +13°C° 0 mm 3 mps 734 mmHg 78%
    21:00 +12°C° 0 mm 3 mps 734 mmHg 83%
    22:00 +12°C° 0 mm 2 mps 735 mmHg 88%
    23:00 +12°C° 0 mm 2 mps 734 mmHg 89%

    7 Junio, Domingo

    Tiempo Temperatura Precipitaciones Viento Presión Humedad
    00:00 +12°C° 0 mm 2 mps 734 mmHg 90%
    01:00 +12°C° 0 mm 1 mps 734 mmHg 90%
    02:00 +12°C° 0 mm 1 mps 734 mmHg 91%
    03:00 +12°C° 0 mm 1 mps 735 mmHg 92%
    04:00 +12°C° 0 mm 1 mps 735 mmHg 93%
    05:00 +14°C° 0 mm 2 mps 735 mmHg 89%
    06:00 +15°C° 0 mm 2 mps 735 mmHg 85%
    07:00 +16°C° 0 mm 2 mps 735 mmHg 81%
    08:00 +17°C° 0 mm 2 mps 736 mmHg 73%
    09:00 +19°C° 0 mm 3 mps 736 mmHg 64%
    10:00 +20°C° 0 mm 3 mps 736 mmHg 55%
    11:00 +21°C° 0 mm 3 mps 736 mmHg 53%
    12:00 +21°C° 0 mm 4 mps 736 mmHg 51%
    13:00 +22°C° 0 mm 4 mps 736 mmHg 49%
    14:00 +20°C° 0.2 mm 3 mps 736 mmHg 59%
    15:00 +18°C° 0.2 mm 3 mps 736 mmHg 70%
    16:00 +16°C° 0.2 mm 3 mps 736 mmHg 80%
    17:00 +15°C° 0.2 mm 2 mps 737 mmHg 83%
    18:00 +15°C° 0.2 mm 2 mps 737 mmHg 86%
    19:00 +15°C° 0.2 mm 1 mps 737 mmHg 89%
    20:00 +14°C° 0.4 mm 1 mps 737 mmHg 90%
    21:00 +14°C° 0.4 mm 1 mps 738 mmHg 91%
    22:00 +12°C° 0.4 mm 0 mps 738 mmHg 91%
    23:00 +13°C° 0 mm 1 mps 738 mmHg 90%

    8 Junio, Lunes

    Tiempo Temperatura Precipitaciones Viento Presión Humedad
    00:00 +12°C° 0 mm 1 mps 738 mmHg 89%
    01:00 +12°C° 0 mm 1 mps 738 mmHg 88%
    02:00 +12°C° 0.5 mm 1 mps 738 mmHg 89%
    03:00 +12°C° 0.5 mm 1 mps 738 mmHg 90%
    04:00 +10°C° 0.5 mm 0 mps 738 mmHg 91%
    05:00 +11°C° 0.2 mm 0 mps 738 mmHg 88%
    06:00 +12°C° 0.2 mm 0 mps 738 mmHg 86%
    07:00 +12°C° 0.2 mm 0 mps 739 mmHg 84%
    08:00 +13°C° 0 mm 0 mps 739 mmHg 79%
    09:00 +15°C° 0 mm 1 mps 739 mmHg 74%
    10:00 +16°C° 0 mm 1 mps 739 mmHg 69%
    11:00 +18°C° 0.1 mm 1 mps 739 mmHg 65%
    12:00 +19°C° 0.1 mm 1 mps 739 mmHg 61%
    13:00 +20°C° 0.1 mm 1 mps 739 mmHg 57%
    14:00 +19°C° 0 mm 1 mps 739 mmHg 57%
    15:00 +19°C° 0 mm 1 mps 739 mmHg 58%
    16:00 +17°C° 0 mm 0 mps 738 mmHg 58%
    17:00 +17°C° 0 mm 0 mps 738 mmHg 63%
    18:00 +16°C° 0 mm 0 mps 738 mmHg 68%
    19:00 +15°C° 0 mm 0 mps 738 mmHg 73%
    20:00 +14°C° 0 mm 0 mps 739 mmHg 76%
    21:00 +13°C° 0 mm 0 mps 739 mmHg 80%
    22:00 +11°C° 0 mm 0 mps 739 mmHg 83%
    23:00 +12°C° 0 mm 1 mps 739 mmHg 84%

    9 Junio, Martes

    Tiempo Temperatura Precipitaciones Viento Presión Humedad
    00:00 +12°C° 0 mm 1 mps 739 mmHg 84%
    01:00 +12°C° 0 mm 1 mps 739 mmHg 85%
    02:00 +12°C° 0 mm 1 mps 739 mmHg 86%
    03:00 +11°C° 0 mm 1 mps 739 mmHg 88%
    04:00 +11°C° 0 mm 1 mps 739 mmHg 89%
    05:00 +12°C° 0 mm 1 mps 739 mmHg 83%
    06:00 +14°C° 0 mm 1 mps 740 mmHg 77%
    07:00 +15°C° 0 mm 0 mps 740 mmHg 72%
    08:00 +18°C° 0.1 mm 1 mps 740 mmHg 68%
    09:00 +20°C° 0.1 mm 1 mps 740 mmHg 64%
    10:00 +21°C° 0.1 mm 1 mps 740 mmHg 61%
    11:00 +21°C° 0.3 mm 1 mps 740 mmHg 60%
    12:00 +21°C° 0.3 mm 1 mps 740 mmHg 60%
    13:00 +22°C° 0.3 mm 1 mps 740 mmHg 60%
    14:00 +21°C° 0.4 mm 1 mps 740 mmHg 63%
    15:00 +21°C° 0.4 mm 1 mps 740 mmHg 67%
    16:00 +20°C° 0.4 mm 1 mps 739 mmHg 71%
    17:00 +19°C° 0.4 mm 1 mps 740 mmHg 76%
    18:00 +18°C° 0.4 mm 1 mps 740 mmHg 80%
    19:00 +16°C° 0.4 mm 1 mps 740 mmHg 85%
    20:00 +16°C° 0.5 mm 1 mps 740 mmHg 87%
    21:00 +15°C° 0.5 mm 1 mps 740 mmHg 90%
    22:00 +14°C° 0.5 mm 1 mps 741 mmHg 92%
    23:00 +14°C° 0.4 mm 1 mps 741 mmHg 92%
    Mostrar más